Temp
13 13 14 14 14 14 15 15 15 16 16 17 17 17 18 18 19 19 19 19 20 20 20 20 20 20 20 20 20 19 12 13 14 14 18 18 18 18 18 18 17 18 18 18 17
13 13 13 13 14 14 14 15 15 16 16 16 17 17 18 18 18 19 19 19 19 20 20 20 20 20 20 19 19 16 12 14 15 14 17 17 18 18 18 17 17 18 19 18 17
13 13 13 14 14 14 14 14 15 16 16 17 17 17 18 18 18 18 19 19 19 19 19 19 20 20 19 18 17 15 14 15 17 17 17 17 18 18 17 15 18 20 20 19 18
13 13 13 14 14 14 14 14 15 15 16 16 17 17 18 18 17 18 18 19 19 19 19 19 19 19 16 16 17 17 16 17 17 17 17 16 18 17 17 20 20 20 20 20 19
12 13 14 14 14 14 14 15 15 15 16 16 17 17 18 18 17 18 18 18 18 18 19 19 19 18 16 16 17 17 16 17 17 17 17 17 17 17 18 20 19 20 20 19 19
12 12 13 13 14 14 14 14 15 15 16 16 16 17 17 16 17 17 17 18 18 18 18 19 19 19 17 16 16 16 16 16 17 17 17 16 16 17 19 19 19 19 19 19 19
12 12 12 13 13 13 14 14 15 15 15 16 16 17 17 17 17 17 17 17 18 18 18 18 18 18 17 15 16 16 16 14 15 16 16 16 15 14 19 19 18 19 19 18 18
11 12 12 12 12 13 13 14 14 15 15 15 16 16 17 17 17 17 17 17 17 17 18 18 18 18 17 16 15 14 12 14 15 14 15 16 13 14 17 17 17 18 18 18 18
9 10 11 12 12 13 13 13 14 14 15 15 15 16 16 16 16 16 16 16 17 17 17 17 18 16 16 12 11 10 13 13 13 13 13 13 13 14 15 15 16 17 17 17 18
9 9 9 10 11 12 13 13 13 14 14 15 15 15 16 15 16 15 15 16 16 16 16 16 16 10 8 11 12 12 12 12 13 14 12 13 10 11 16 14 15 16 16 16 17
10 10 9 10 10 11 12 13 13 14 13 15 15 15 15 15 15 14 15 15 15 15 13 13 11 11 11 11 13 12 12 13 12 13 13 11 10 11 15 13 14 16 17 17 17
9 9 10 9 9 10 11 12 13 12 12 14 14 14 14 14 14 14 14 15 14 11 11 10 10 11 12 11 13 13 13 11 11 12 13 11 11 11 12 12 15 17 18 18 19
9 10 10 9 9 9 10 11 12 12 11 13 14 14 15 14 15 15 14 14 12 10 10 10 13 11 11 11 12 11 11 11 12 12 10 10 9 10 11 12 15 16 17 18 19
8 8 9 8 8 9 9 10 11 11 9 10 11 13 13 14 13 14 14 15 11 11 9 10 11 12 11 11 11 11 10 11 12 12 10 11 10 10 12 12 11 16 17 18 19
7 8 8 8 8 9 9 10 10 11 9 11 10 11 11 13 12 10 12 13 9 10 10 12 10 10 11 11 11 11 10 10 11 10 10 9 9 11 11 12 13 15 18 20 20
6 7 7 7 7 8 9 9 9 9 9 11 9 9 9 10 10 9 11 12 12 10 11 11 11 10 11 10 11 9 10 8 6 8 8 9 10 11 11 12 13 14 18 19 19
5 5 6 7 7 7 8 6 6 7 8 10 9 8 9 8 9 9 9 9 10 10 10 11 10 11 11 10 10 11 11 10 9 6 9 7 8 15 13 13 11 13 18 18 18
3 5 5 6 7 7 7 6 7 5 8 8 8 8 9 8 9 8 7 8 9 10 8 10 10 9 9 12 11 9 10 9 10 7 9 6 8 11 10 12 15 14 17 18 18
2 4 5 6 6 7 6 7 8 6 8 8 8 8 8 8 8 8 7 7 9 8 11 9 10 9 9 11 13 9 10 11 11 -1 5 10 9 11 10 9 11 13 15 17 18
2 3 4 6 6 6 7 7 8 8 8 9 9 10 8 7 8 7 6 8 9 9 12 12 10 8 10 11 10 10 9 9 6 8 6 9 9 11 14 12 11 9 13 17 17
2 2 4 6 5 5 6 6 7 9 11 9 9 9 8 7 8 6 8 9 8 8 12 11 10 9 9 8 8 9 9 9 9 7 7 6 13 8 12 12 11 12 16 17 17
1 1 4 4 4 5 5 7 7 7 9 9 9 10 8 7 7 6 8 9 10 9 9 10 9 7 8 8 7 8 9 8 8 7 5 6 13 10 9 10 11 13 16 16 17
0 1 4 3 4 4 5 6 7 7 8 8 9 9 9 10 9 8 7 9 10 9 9 9 9 6 8 8 7 7 7 9 8 6 9 7 13 8 10 10 12 12 15 16 16
-1 -1 1 3 3 4 5 5 5 7 7 8 8 8 8 10 10 8 8 7 10 10 11 12 8 8 10 11 7 7 6 8 11 8 11 10 14 13 12 12 11 15 17 16 17
-1 -1 1 1 2 2 3 4 5 5 7 8 8 7 8 8 8 9 8 8 7 8 9 10 8 8 10 9 8 8 8 7 10 11 9 13 12 14 13 12 13 17 18 16 17
-1 -2 1 0 2 2 2 3 3 4 5 7 6 8 7 6 7 7 8 7 9 6 8 8 7 7 7 8 7 7 6 8 8 10 11 11 11 14 15 14 13 14 15 16 16
-1 -1 -1 0 -0 0 1 3 3 4 5 5 5 6 7 8 9 9 8 9 9 9 6 7 7 6 8 8 7 7 7 9 9 10 10 9 12 13 12 12 13 13 14 14 15
Height
1519 1519 1520 1521 1523 1525 1524 1524 1526 1526 1525 1526 1526 1526 1525 1525 1525 1524 1525 1525 1525 1526 1527 1528 1528 1528 1529 1529 1530 1531 1546 1556 1550 1551 1542 1541 1542 1544 1546 1546 1548 1548 1548 1549 1551
1518 1520 1520 1521 1522 1523 1524 1526 1526 1525 1524 1525 1525 1525 1524 1524 1524 1523 1525 1524 1525 1526 1527 1528 1528 1529 1530 1531 1531 1532 1548 1545 1539 1539 1539 1540 1541 1543 1546 1546 1547 1546 1547 1548 1550
1518 1519 1521 1521 1521 1522 1524 1524 1524 1524 1524 1524 1523 1523 1523 1522 1523 1523 1523 1524 1524 1525 1526 1527 1527 1530 1531 1532 1533 1534 1542 1537 1537 1537 1538 1539 1541 1542 1543 1546 1542 1542 1544 1546 1547
1517 1519 1520 1520 1522 1523 1523 1522 1523 1523 1522 1522 1523 1521 1522 1522 1528 1523 1523 1523 1523 1525 1525 1526 1528 1530 1532 1533 1533 1536 1536 1537 1537 1537 1538 1539 1540 1540 1540 1539 1540 1542 1543 1544 1545
1518 1518 1520 1520 1521 1522 1523 1523 1523 1523 1522 1522 1521 1521 1523 1522 1523 1523 1523 1523 1524 1524 1525 1526 1528 1529 1533 1533 1533 1535 1537 1536 1537 1537 1538 1538 1539 1539 1536 1537 1539 1540 1541 1542 1543
1516 1518 1519 1520 1521 1521 1522 1523 1523 1522 1521 1521 1521 1522 1522 1522 1521 1523 1524 1524 1524 1524 1525 1526 1528 1528 1531 1533 1534 1535 1536 1537 1536 1537 1537 1538 1538 1538 1533 1534 1536 1537 1538 1539 1541
1515 1516 1518 1519 1519 1520 1521 1521 1521 1522 1521 1521 1521 1520 1520 1521 1521 1522 1523 1524 1524 1525 1526 1527 1528 1530 1532 1533 1534 1534 1537 1537 1536 1537 1537 1538 1540 1534 1532 1533 1534 1534 1535 1536 1538
1512 1514 1515 1516 1517 1518 1519 1520 1520 1520 1520 1520 1520 1520 1519 1518 1519 1521 1522 1523 1524 1525 1526 1528 1529 1530 1532 1535 1536 1538 1542 1546 1536 1537 1537 1539 1546 1527 1528 1530 1530 1531 1532 1533 1533
1512 1512 1513 1514 1515 1516 1517 1518 1518 1519 1519 1519 1520 1519 1518 1516 1518 1518 1521 1522 1524 1526 1526 1528 1529 1532 1535 1540 1548 1548 1550 1548 1542 1536 1537 1539 1539 1528 1527 1527 1526 1527 1528 1528 1529
1510 1511 1512 1512 1513 1514 1515 1515 1516 1517 1517 1517 1517 1520 1516 1515 1515 1516 1519 1521 1523 1525 1527 1529 1531 1537 1541 1544 1557 1550 1551 1550 1546 1537 1538 1539 1537 1528 1526 1526 1524 1524 1524 1524 1523
1507 1509 1510 1511 1511 1512 1514 1515 1517 1516 1513 1513 1513 1513 1512 1514 1515 1515 1517 1520 1521 1524 1529 1530 1537 1541 1535 1536 1537 1542 1544 1544 1540 1535 1536 1536 1533 1527 1521 1521 1519 1518 1518 1516 1515
1503 1505 1506 1509 1509 1511 1511 1512 1512 1514 1511 1509 1510 1511 1512 1512 1513 1514 1517 1520 1520 1526 1528 1536 1539 1525 1530 1535 1537 1540 1543 1546 1540 1536 1538 1535 1528 1518 1516 1511 1508 1509 1508 1507 1507
1498 1501 1503 1505 1507 1508 1509 1511 1511 1512 1513 1506 1505 1505 1508 1510 1509 1509 1514 1516 1519 1526 1528 1532 1525 1523 1527 1534 1538 1540 1543 1542 1541 1537 1537 1536 1528 1517 1503 1502 1501 1499 1498 1499 1496
1497 1500 1501 1497 1505 1505 1507 1509 1511 1513 1518 1506 1500 1498 1500 1505 1506 1505 1510 1513 1517 1521 1527 1528 1522 1524 1528 1531 1532 1540 1532 1534 1537 1542 1552 1536 1542 1518 1503 1499 1495 1488 1486 1483 1486
1494 1496 1498 1499 1500 1502 1505 1507 1510 1512 1525 1494 1495 1495 1496 1500 1500 1502 1505 1508 1513 1516 1521 1518 1521 1524 1527 1525 1527 1531 1530 1535 1537 1544 1544 1541 1548 1509 1502 1499 1488 1479 1476 1475 1477
1490 1492 1495 1495 1497 1500 1502 1504 1510 1516 1511 1492 1493 1494 1497 1498 1499 1502 1505 1508 1509 1514 1515 1515 1514 1516 1516 1520 1522 1527 1532 1539 1547 1548 1550 1531 1536 1500 1500 1487 1479 1471 1469 1470 1473
1487 1490 1491 1491 1494 1498 1501 1505 1514 1500 1493 1491 1493 1494 1494 1498 1501 1502 1506 1509 1511 1521 1517 1516 1514 1512 1513 1521 1524 1524 1532 1550 1556 1565 1538 1531 1535 1482 1478 1475 1472 1468 1462 1466 1468
1483 1486 1486 1488 1491 1495 1498 1506 1492 1502 1495 1491 1492 1495 1494 1495 1498 1502 1505 1509 1506 1507 1517 1517 1519 1509 1506 1507 1517 1525 1524 1544 1549 1555 1535 1534 1521 1487 1468 1464 1462 1461 1460 1460 1461
1479 1481 1481 1486 1489 1491 1496 1494 1486 1490 1485 1491 1497 1494 1497 1494 1497 1500 1505 1503 1496 1500 1507 1516 1511 1500 1501 1501 1503 1520 1525 1515 1525 1572 1553 1509 1492 1473 1464 1462 1458 1454 1454 1453 1456
1475 1476 1475 1482 1487 1490 1487 1482 1477 1475 1479 1482 1484 1485 1493 1495 1496 1500 1502 1486 1488 1487 1491 1497 1507 1502 1501 1502 1505 1505 1508 1525 1536 1541 1555 1507 1500 1481 1462 1458 1452 1450 1448 1449 1454
1475 1476 1474 1476 1483 1487 1475 1474 1469 1469 1472 1478 1477 1480 1482 1489 1487 1494 1487 1481 1480 1482 1486 1491 1499 1505 1503 1503 1502 1508 1510 1511 1514 1522 1528 1535 1476 1460 1455 1449 1449 1446 1446 1448 1450
1474 1476 1471 1473 1480 1476 1473 1465 1467 1468 1470 1471 1471 1471 1477 1481 1484 1489 1482 1474 1471 1474 1487 1484 1493 1505 1498 1494 1495 1493 1493 1499 1512 1520 1526 1522 1463 1448 1450 1448 1448 1445 1446 1447 1448
1471 1470 1469 1471 1469 1468 1463 1463 1466 1465 1465 1468 1466 1465 1467 1470 1477 1473 1472 1465 1468 1471 1474 1478 1490 1511 1498 1497 1496 1494 1491 1488 1496 1507 1497 1513 1454 1450 1448 1447 1446 1447 1445 1446 1446
1469 1467 1465 1465 1461 1462 1462 1458 1461 1458 1464 1463 1464 1467 1464 1461 1462 1466 1464 1462 1462 1464 1467 1467 1480 1485 1478 1473 1480 1487 1483 1481 1482 1498 1465 1481 1438 1446 1445 1445 1445 1445 1443 1443 1442
1462 1460 1458 1459 1458 1459 1461 1457 1455 1456 1456 1457 1460 1461 1461 1460 1462 1458 1458 1459 1461 1461 1464 1467 1473 1476 1465 1471 1473 1473 1474 1479 1476 1458 1480 1443 1459 1419 1441 1441 1442 1441 1440 1438 1436
1453 1455 1455 1454 1454 1456 1456 1454 1456 1453 1453 1450 1454 1449 1453 1457 1456 1458 1458 1459 1456 1460 1460 1461 1472 1473 1469 1465 1470 1472 1475 1468 1461 1458 1464 1447 1446 1410 1431 1434 1434 1434 1434 1431 1431
1447 1448 1452 1450 1452 1456 1449 1447 1446 1450 1448 1450 1452 1450 1445 1446 1446 1447 1452 1450 1446 1448 1455 1457 1463 1469 1456 1453 1466 1464 1454 1447 1452 1447 1448 1453 1415 1419 1423 1426 1423 1425 1426 1424 1425
Wind_Speed
8 8 7 6 4 3 3 3 3 3 3 3 2 3 3 3 3 4 4 4 4 6 5 4 4 3 3 4 3 3 5 3 7 7 4 9 4 6 5 7 11 8 6 5 19
10 7 7 7 6 4 3 3 3 3 2 3 3 3 3 2 3 3 3 4 5 6 5 4 4 3 2 2 3 4 4 8 6 5 3 7 5 12 5 7 8 9 11 9 18
8 8 6 5 4 4 4 3 2 2 3 3 3 3 3 1 2 1 2 5 6 6 6 5 5 2 3 2 3 3 4 5 3 2 3 6 4 9 7 4 12 16 16 14 20
9 7 6 5 3 2 2 1 2 2 3 4 4 3 3 1 2 2 1 3 6 7 7 6 5 3 3 2 2 3 2 2 2 0 3 4 4 5 13 9 6 15 13 16 22
8 8 7 6 5 3 2 2 2 3 3 4 4 3 2 2 2 3 1 3 6 7 7 6 6 4 5 3 2 3 0 1 1 1 1 3 5 7 12 18 11 9 15 18 21
9 9 9 8 7 5 4 4 4 4 4 5 4 4 3 1 4 5 3 3 6 6 6 6 3 5 6 3 3 3 1 1 2 2 3 2 2 2 6 17 15 15 17 20 22
9 9 11 11 9 8 7 6 5 5 5 5 6 6 5 5 6 7 6 5 6 5 6 5 5 1 4 3 3 3 1 4 3 3 2 4 6 11 22 13 14 18 20 23 25
8 9 10 11 12 11 10 9 8 7 7 6 7 7 4 6 8 8 8 7 6 5 5 4 4 5 3 6 5 4 5 2 2 5 2 5 8 12 9 23 21 20 21 25 27
8 7 8 9 10 12 12 12 10 9 9 8 8 5 5 5 10 12 10 7 6 5 4 4 4 4 4 4 5 6 2 3 7 8 3 4 6 4 4 9 20 24 25 27 28
10 10 9 9 8 8 11 12 11 10 11 10 12 5 9 4 6 11 11 9 6 7 5 3 3 4 3 4 5 5 3 4 4 2 2 4 11 11 16 11 19 21 25 30 32
15 15 10 12 10 7 6 8 7 6 11 7 2 2 1 6 6 8 12 11 8 6 4 2 4 7 11 6 2 5 3 4 4 3 3 7 9 11 22 18 26 30 27 31 35
21 19 19 17 14 11 6 5 5 2 5 10 17 14 9 7 6 11 14 9 6 4 6 5 7 9 4 4 3 2 3 6 5 3 2 8 14 13 9 16 28 33 36 38 37
14 23 21 18 19 18 12 8 7 4 3 7 16 16 18 18 10 16 20 10 4 5 7 7 4 5 7 4 5 5 6 5 6 4 4 5 8 8 8 20 29 35 38 39 43
17 16 17 12 15 18 17 9 8 3 2 6 6 8 16 14 7 15 23 9 3 11 7 6 4 4 3 4 8 5 7 5 3 2 4 1 6 7 7 9 9 31 37 45 46
16 17 15 13 7 9 10 15 10 7 4 3 4 3 12 11 7 9 25 11 9 8 7 8 8 5 5 6 7 6 4 6 3 3 3 1 2 5 2 8 14 21 38 39 40
10 13 14 11 15 12 10 12 12 4 10 3 3 4 6 1 2 4 10 3 5 5 2 4 2 7 8 2 4 8 6 6 4 2 5 11 8 7 6 9 6 17 34 35 31
12 12 14 15 15 16 14 20 4 4 4 3 4 4 3 5 2 3 6 5 7 5 9 1 5 3 4 5 3 3 6 2 3 1 9 3 4 16 6 10 9 15 33 25 20
17 17 16 19 14 13 18 3 6 5 6 2 3 2 6 6 4 4 7 6 7 2 3 8 7 11 7 9 8 9 8 6 7 4 5 3 8 8 10 16 24 26 33 31 25
20 18 20 18 18 19 19 8 7 5 5 8 0 4 3 2 4 4 6 5 8 10 9 6 6 1 3 2 9 6 8 3 1 2 3 5 8 9 8 12 16 28 25 29 22
13 16 24 17 17 24 9 15 8 9 8 4 12 13 10 6 6 7 9 6 6 14 5 5 4 2 0 2 2 4 6 3 2 3 5 6 7 7 7 9 12 9 23 30 22
8 5 1 10 17 14 12 7 8 11 18 7 8 6 7 8 8 6 7 4 6 6 23 5 4 1 3 7 10 3 4 1 4 5 5 3 9 8 10 12 9 10 13 10 10
4 3 4 16 10 6 12 11 7 5 16 11 5 11 10 8 8 8 14 10 16 15 12 8 4 5 10 2 3 1 5 7 4 5 4 2 15 5 8 7 8 17 12 7 5
5 5 8 19 7 11 8 15 19 3 9 5 8 10 7 13 10 12 9 8 17 10 12 9 4 2 7 2 3 5 6 7 4 4 13 5 15 1 1 6 7 14 13 10 8
5 2 9 16 15 7 14 20 14 15 21 10 5 12 4 11 11 6 9 6 22 18 15 15 5 10 15 5 4 6 8 13 14 4 21 14 34 10 2 4 8 16 21 17 17
12 6 6 3 12 10 6 4 17 15 17 24 20 16 10 10 12 17 8 2 3 8 8 9 8 9 22 8 3 5 5 10 17 29 12 31 20 31 15 14 22 33 29 25 28
11 5 5 4 6 4 8 20 18 14 5 16 20 17 21 19 13 8 20 6 6 5 9 5 6 10 20 17 9 9 8 14 23 23 17 30 28 32 29 17 17 28 33 40 40
20 18 6 5 4 4 8 7 7 9 21 25 17 15 17 20 30 30 23 17 12 10 9 10 8 7 16 14 7 13 25 25 21 24 21 21 36 21 21 17 28 29 35 39 38
Wind_Direction
175 169 168 168 175 192 189 196 214 216 225 255 259 273 268 260 218 186 183 181 187 181 179 164 143 134 121 105 90 109 66 168 195 153 227 169 153 172 186 160 180 205 227 218 189
171 173 168 169 173 179 196 216 227 225 244 256 274 283 291 280 207 184 203 201 200 189 177 168 130 146 85 78 54 82 111 209 189 192 196 187 177 169 172 182 217 225 227 222 194
176 173 176 174 175 184 190 209 239 261 260 271 286 293 290 289 159 181 230 214 201 196 180 161 145 124 83 69 37 119 165 188 205 223 228 185 200 176 166 231 220 222 219 214 198
180 186 183 179 188 203 236 233 256 270 277 289 293 302 293 202 176 162 164 192 191 192 179 168 148 119 81 101 68 89 107 164 161 218 147 171 171 208 207 222 248 238 235 219 206
214 201 203 205 204 210 240 276 290 294 296 294 297 296 272 193 200 173 130 154 174 174 174 159 153 137 138 129 93 78 205 140 257 273 279 200 224 228 242 237 251 245 227 223 215
237 240 233 230 226 231 242 266 291 308 315 315 310 295 267 187 216 207 195 163 160 159 156 151 152 129 117 101 106 122 136 302 292 260 256 229 260 247 248 242 239 241 233 226 224
241 245 251 253 248 246 254 258 269 288 301 310 311 311 282 246 215 205 198 188 164 155 145 127 131 112 126 109 116 98 48 335 238 240 247 199 296 239 241 252 243 240 235 227 226
235 249 253 252 257 257 259 262 268 271 280 292 303 310 272 236 220 204 191 186 181 172 159 150 131 122 72 119 31 52 50 32 255 162 278 150 265 273 271 244 248 244 235 230 228
272 255 256 259 259 258 255 262 264 273 279 284 291 295 262 240 219 206 205 207 201 186 162 157 161 98 104 79 12 10 233 210 315 196 136 170 262 277 299 244 245 242 241 237 236
260 269 264 258 260 266 261 256 264 266 267 272 264 281 239 217 203 205 204 198 174 172 145 153 83 69 40 98 219 208 226 257 252 205 177 230 255 273 267 272 260 256 248 244 243
241 257 260 266 267 264 266 258 264 257 235 220 212 202 205 202 193 192 192 180 156 151 141 69 101 213 205 193 128 135 182 231 245 261 210 237 261 258 270 259 258 257 254 251 247
243 244 258 263 268 263 255 213 220 217 312 252 244 241 244 199 188 190 182 176 160 153 120 44 231 222 141 155 157 147 198 255 284 247 199 279 269 263 239 247 247 253 252 250 252
252 241 248 243 250 256 248 238 237 266 286 268 237 238 228 223 221 203 185 176 133 127 188 169 216 130 148 150 169 215 190 220 228 335 253 321 281 257 259 241 255 255 254 255 254
250 247 241 239 239 247 251 236 225 161 14 262 222 225 213 203 240 208 194 174 164 190 156 230 245 156 166 190 165 237 208 172 201 59 249 93 286 282 259 256 232 254 255 256 254
235 240 240 241 223 227 240 221 189 139 259 209 171 198 167 183 151 188 182 197 163 172 139 234 175 170 181 205 155 227 126 157 137 179 320 149 285 245 334 269 257 253 257 259 263
231 229 231 233 235 233 237 197 149 140 223 198 130 159 128 56 72 106 170 160 146 121 272 233 194 171 193 126 157 148 82 56 53 94 275 185 172 254 194 213 252 255 261 267 275
235 230 212 214 233 221 232 143 135 223 345 187 199 177 152 153 118 126 153 179 164 146 219 118 214 175 158 94 50 123 98 314 330 5 241 59 166 248 295 264 223 250 267 273 281
250 237 225 211 207 225 188 112 198 183 252 45 105 58 183 160 189 151 137 189 250 121 122 186 273 164 188 187 168 199 163 170 214 208 270 102 233 248 239 260 257 258 262 269 272
263 258 249 223 208 206 174 225 215 196 175 161 228 59 253 212 140 141 203 222 197 178 185 173 268 195 147 159 153 196 204 195 55 75 11 233 281 295 264 271 270 256 259 263 267
270 271 255 234 213 201 213 234 225 177 151 190 191 182 193 198 171 179 173 209 211 186 185 213 279 38 131 133 27 170 163 81 348 196 249 269 268 229 276 255 254 265 256 268 274
278 281 286 209 199 208 237 222 239 233 206 175 214 215 198 180 184 199 207 257 212 191 192 156 168 250 141 209 171 138 208 143 137 159 184 289 265 215 218 234 254 263 273 280 279
214 230 185 179 180 202 227 228 191 178 217 235 217 223 203 179 192 207 215 216 192 143 172 210 163 213 212 225 233 256 226 154 144 224 241 176 266 145 231 256 253 264 285 292 276
216 232 223 199 212 218 225 243 242 223 194 212 237 220 192 210 225 205 207 204 183 164 171 171 190 332 317 343 343 209 199 208 108 80 229 147 258 79 63 305 298 280 280 275 266
187 263 227 233 247 240 228 243 250 227 239 224 214 243 235 228 216 244 239 193 202 201 202 166 152 196 228 200 140 195 193 194 197 187 246 230 260 251 342 297 287 281 279 266 249
198 223 214 209 239 240 253 302 241 246 223 214 236 228 229 237 232 240 237 138 199 218 193 176 202 207 244 239 210 202 179 188 204 228 214 255 246 262 254 249 249 258 265 260 264
213 183 212 247 271 225 243 247 251 259 257 237 234 230 217 234 236 231 234 198 205 181 176 198 225 217 253 250 231 251 212 214 218 236 238 253 259 259 264 273 245 251 257 260 268
227 231 222 221 217 224 236 243 260 259 262 246 269 276 246 233 239 245 264 273 223 199 185 175 176 189 241 238 238 252 241 248 250 246 233 244 252 267 266 258 256 252 257 263 267